FW6665 Weather Reports


Display with metric or nautical units.
time (UTC)temp
F
wind
direction
speed
MPH
gust
MPH
rain 1hr
in
rain 24hr
in
rain mn
in
humidity
%
barometer
mb
20260903071204 68 178 2.0 11.0 0.00 0.01 0.00 77 1014.0
20260903070704 68 200 2.0 9.0 0.00 0.01 0.00 77 1014.1
20260903070209 67 224 1.0 9.0 0.00 0.01 0.00 77 1013.9
20260903065705 67 217 2.0 9.0 0.00 0.01 0.00 77 1014.0
20260903065205 67 178 2.0 10.0 0.00 0.01 0.00 77 1014.0
20260903064705 67 223 3.0 11.0 0.00 0.01 0.00 77 1014.2
20260903064204 67 241 4.0 11.0 0.00 0.01 0.00 77 1014.2
20260903063704 67 250 4.0 11.0 0.00 0.01 0.00 77 1014.3
20260903063204 67 240 3.0 9.0 0.00 0.01 0.00 77 1014.1
20260903062704 67 176 3.0 9.0 0.00 0.01 0.00 77 1014.0
20260903062204 67 248 2.0 9.0 0.00 0.01 0.00 77 1014.1
20260903061705 67 120 1.0 10.0 0.00 0.01 0.00 77 1014.0
20260903061204 67 212 1.0 10.0 0.00 0.01 0.00 76 1014.1
20260903060704 67 166 2.0 10.0 0.00 0.01 0.00 76 1014.0
20260903060204 67 110 2.0 10.0 0.00 0.01 0.00 76 1014.0
20260903055704 67 228 3.0 10.0 0.00 0.01 0.00 76 1014.0
20260903055205 67 175 2.0 6.0 0.00 0.01 0.00 76 1013.9
20260903054703 67 193 2.0 6.0 0.00 0.01 0.00 76 1013.9
20260903054204 67 204 1.0 6.0 0.00 0.01 0.00 76 1013.8
20260903053704 67 238 1.0 7.0 0.00 0.01 0.00 76 1013.7
20260903053204 67 207 2.0 7.0 0.00 0.01 0.00 76 1013.8
20260903052204 67 169 3.0 7.0 0.00 0.01 0.00 76 1013.6
20260903051704 67 203 2.0 7.0 0.00 0.01 0.00 76 1013.7
20260903051204 67 196 2.0 7.0 0.00 0.01 0.00 76 1013.6
20260903050704 67 196 4.0 7.0 0.00 0.01 0.00 76 1013.8
20260903050203 67 197 2.0 10.0 0.00 0.01 0.00 76 1013.8
20260903045714 67 102 2.0 10.0 0.00 0.01 0.00 76 1013.6
20260903045204 66 221 3.0 10.0 0.00 0.01 0.00 76 1013.7
20260903044704 66 178 2.0 7.0 0.00 0.01 0.00 76 1013.5
20260903044204 66 244 2.0 7.0 0.00 0.01 0.00 75 1013.4
20260903043704 66 240 1.0 7.0 0.00 0.01 0.00 75 1013.6
20260903043204 66 190 1.0 6.0 0.00 0.01 0.00 75 1013.5
20260903042704 66 199 2.0 6.0 0.00 0.01 0.00 75 1013.6
20260903042204 66 217 1.0 6.0 0.00 0.01 0.00 75 1013.6
20260903041704 66 190 2.0 6.0 0.00 0.01 0.00 75 1013.6
20260903040729 67 237 2.0 7.0 0.00 0.01 0.00 75 1013.7
20260903040204 67 204 1.0 5.0 0.00 0.01 0.00 75 1013.8
20260903035704 67 231 2.0 6.0 0.00 0.01 0.00 75 1013.7
20260903035204 67 196 2.0 9.0 0.00 0.01 0.00 75 1013.7
20260903034704 67 247 2.0 9.0 0.00 0.01 0.00 75 1013.6
20260903034205 67 180 2.0 9.0 0.00 0.01 0.00 75 1013.4
20260903033704 67 254 3.0 7.0 0.00 0.01 0.00 75 1013.5
20260903033204 66 157 2.0 10.0 0.00 0.01 0.00 75 1013.5
20260903032205 66 179 2.0 10.0 0.00 0.01 0.00 75 1013.7
20260903031204 66 199 2.0 7.0 0.00 0.01 0.00 75 1013.6
20260903030704 66 197 3.0 6.0 0.00 0.01 0.00 75 1013.6
20260903023704 66 220 2.0 7.0 0.00 0.01 0.00 76 1013.6
20260903023214 66 189 1.0 7.0 0.00 0.01 0.00 76 1013.7
20260903022204 66 178 2.0 6.0 0.00 0.01 0.00 75 1013.7
20260903021704 66 164 1.0 5.0 0.00 0.01 0.00 75 1013.7
20260903015705 66 162 0.0 9.0 0.00 0.01 0.00 75 1013.7
20260903015204 66 180 2.0 9.0 0.00 0.01 0.00 75 1013.7
20260903014704 66 196 0.0 9.0 0.00 0.01 0.00 75 1013.8
20260903014204 66 189 2.0 7.0 0.00 0.01 0.00 75 1013.8
20260903013704 66 164 2.0 7.0 0.00 0.01 0.00 75 1013.7
20260903013204 66 197 2.0 7.0 0.00 0.01 0.00 75 1013.9
20260903012205 66 185 2.0 5.0 0.00 0.01 0.00 75 1013.8
20260903011705 66 196 2.0 10.0 0.00 0.01 0.00 75 1013.8
20260903011205 66 183 1.0 10.0 0.00 0.01 0.00 75 1013.8
20260903010703 66 203 2.0 5.0 0.00 0.01 0.00 75 1013.7
20260903005704 66 162 2.0 6.0 0.00 0.01 0.00 75 1014.1
20260903005204 66 190 2.0 6.0 0.00 0.01 0.00 75 1014.2
20260903004704 66 188 2.0 10.0 0.00 0.01 0.00 75 1014.3
20260903004204 66 203 1.0 10.0 0.00 0.01 0.00 75 1014.2
20260903002704 66 179 2.0 10.0 0.00 0.01 0.00 75 1014.1
20260903001704 66 185 2.0 10.0 0.00 0.01 0.00 75 1014.3
20260903001204 66 212 3.0 6.0 0.00 0.01 0.00 75 1014.2
20260903000704 66 203 1.0 9.0 0.00 0.01 0.00 75 1014.3
20260903000204 66 272 2.0 9.0 0.00 0.01 0.00 75 1014.3
20260902235704 66 195 2.0 9.0 0.00 0.01 0.00 75 1014.2
20260902235207 66 228 2.0 6.0 0.00 0.01 0.00 75 1014.1
20260902234704 66 178 3.0 6.0 0.00 0.01 0.00 75 1014.3
20260902234203 66 258 1.0 6.0 0.00 0.01 0.00 75 1014.3
20260902233704 66 199 2.0 6.0 0.00 0.01 0.00 75 1014.3
20260902233204 66 255 2.0 5.0 0.00 0.01 0.00 75 1014.3
20260902232703 66 228 2.0 5.0 0.00 0.01 0.00 75 1014.3
20260902232204 66 161 2.0 7.0 0.00 0.01 0.00 75 1014.4
20260902231204 66 175 2.0 7.0 0.00 0.01 0.00 75 1014.4
20260902230730 67 180 2.0 7.0 0.00 0.01 0.00 75 1014.6
20260902230204 67 124 2.0 7.0 0.00 0.01 0.01 75 1014.6
20260902225704 67 243 2.0 7.0 0.00 0.01 0.01 75 1014.6
20260902225204 67 197 2.0 6.0 0.00 0.01 0.01 75 1014.6
20260902224704 67 234 3.0 7.0 0.00 0.01 0.01 75 1014.7
20260902224204 67 235 2.0 13.0 0.00 0.01 0.01 75 1014.7
20260902223705 67 193 2.0 13.0 0.00 0.01 0.01 75 1014.5
20260902223203 67 255 3.0 9.0 0.00 0.01 0.01 75 1014.5
20260902222704 67 217 2.0 9.0 0.00 0.01 0.01 75 1014.3
20260902222205 67 185 1.0 9.0 0.00 0.01 0.01 75 1014.2
20260902220704 67 168 3.0 13.0 0.00 0.01 0.01 75 1014.2
20260902215204 67 189 1.0 11.0 0.00 0.01 0.01 75 1014.0
20260902214705 67 217 2.0 11.0 0.00 0.01 0.01 75 1014.3
20260902214204 67 207 2.0 10.0 0.00 0.01 0.01 75 1014.2
20260902213704 67 216 2.0 10.0 0.00 0.01 0.01 75 1014.3
20260902213204 67 203 3.0 7.0 0.00 0.01 0.01 75 1014.2
20260902212704 67 197 2.0 9.0 0.00 0.01 0.01 75 1014.3
20260902212205 67 195 2.0 9.0 0.00 0.01 0.01 75 1014.3
20260902211704 67 264 2.0 7.0 0.00 0.01 0.01 75 1014.5
20260902211204 67 240 3.0 7.0 0.00 0.01 0.01 74 1014.5
20260902210704 67 219 2.0 7.0 0.00 0.01 0.01 74 1014.4
20260902210204 67 183 3.0 7.0 0.00 0.01 0.01 74 1014.5
20260902205704 67 228 3.0 10.0 0.00 0.01 0.01 74 1014.4
20260902205204 67 175 2.0 10.0 0.00 0.01 0.01 73 1014.3
20260902204724 67 241 2.0 5.0 0.00 0.01 0.01 73 1014.3
20260902204204 67 261 2.0 4.0 0.00 0.01 0.01 72 1014.2
20260902203707 67 213 1.0 6.0 0.00 0.01 0.01 72 1014.2
20260902203204 67 186 0.0 6.0 0.00 0.01 0.01 71 1014.2
20260902202704 66 176 2.0 4.0 0.00 0.01 0.01 71 1014.3
20260902202209 67 107 1.0 4.0 0.00 0.01 0.01 71 1014.4
20260902201704 66 173 2.0 6.0 0.00 0.01 0.01 71 1014.4
20260902201204 66 189 1.0 6.0 0.00 0.01 0.01 71 1014.5
20260902200704 66 200 2.0 6.0 0.00 0.01 0.01 71 1014.4
20260902195705 67 125 2.0 6.0 0.00 0.01 0.01 72 1014.4
20260902195204 67 173 2.0 6.0 0.00 0.01 0.01 72 1014.6
20260902194704 67 189 2.0 6.0 0.00 0.01 0.01 72 1014.6
20260902193704 67 176 2.0 6.0 0.00 0.01 0.01 73 1014.7
20260902193204 66 210 1.0 6.0 0.00 0.01 0.01 73 1014.7
20260902192704 66 248 2.0 5.0 0.00 0.01 0.01 73 1014.4
20260902192206 66 169 1.0 6.0 0.00 0.01 0.01 73 1014.3
20260902191704 66 180 2.0 6.0 0.00 0.01 0.01 73 1014.3
20260902191204 66 213 2.0 6.0 0.00 0.01 0.01 73 1014.3
20260902190704 66 214 2.0 6.0 0.00 0.01 0.01 74 1014.2
20260902185704 66 178 2.0 10.0 0.00 0.01 0.01 74 1014.3
20260902185205 66 196 2.0 10.0 0.00 0.01 0.01 74 1014.4
20260902184204 66 176 2.0 7.0 0.00 0.01 0.01 74 1014.4
20260902183704 66 219 2.0 7.0 0.00 0.01 0.01 75 1014.5
20260902183204 66 183 3.0 9.0 0.00 0.01 0.01 75 1014.4
20260902182704 66 204 2.0 9.0 0.00 0.01 0.01 75 1014.4
20260902182204 66 162 2.0 9.0 0.00 0.01 0.01 76 1014.4
20260902181704 66 161 1.0 11.0 0.00 0.01 0.01 76 1014.5
20260902181205 66 113 2.0 11.0 0.00 0.01 0.01 76 1014.5
20260902180204 66 192 2.0 10.0 0.00 0.01 0.01 76 1014.7
20260902175204 66 121 2.0 10.0 0.00 0.01 0.01 77 1014.8
20260902174705 67 168 2.0 7.0 0.00 0.01 0.01 77 1014.9
20260902174204 67 147 3.0 7.0 0.00 0.01 0.01 77 1014.7
20260902173704 67 188 2.0 7.0 0.00 0.01 0.01 77 1014.8
20260902173204 67 166 2.0 14.0 0.00 0.01 0.01 77 1014.8
20260902172705 67 173 3.0 14.0 0.00 0.01 0.01 76 1014.8
20260902172204 67 172 2.0 14.0 0.00 0.01 0.01 76 1014.8
20260902171704 67 154 5.0 12.0 0.00 0.01 0.01 76 1014.8
20260902171203 67 169 3.0 12.0 0.00 0.01 0.01 76 1014.6
20260902170704 67 133 2.0 10.0 0.00 0.01 0.01 75 1014.7
20260902170205 67 151 3.0 10.0 0.00 0.01 0.01 75 1014.8
20260902165705 68 200 2.0 10.0 0.00 0.01 0.01 74 1014.8
20260902165204 68 261 3.0 10.0 0.00 0.01 0.01 74 1014.8
20260902164728 68 0 4.0 5.0 0.00 0.01 0.01 73 1014.9
20260902164204 68 164 2.0 9.0 0.00 0.01 0.01 73 1015.0
20260902163704 69 159 2.0 12.0 0.00 0.01 0.01 73 1014.9
20260902162705 69 195 3.0 11.0 0.00 0.01 0.01 72 1015.2
20260902160705 70 206 3.0 10.0 0.00 0.01 0.01 67 1015.1
20260902160203 70 149 5.0 12.0 0.00 0.01 0.01 66 1015.0
20260902155704 70 223 3.0 12.0 0.00 0.01 0.01 67 1015.2
20260902155204 70 123 1.0 11.0 0.00 0.01 0.01 67 1015.3
20260902154704 69 183 3.0 11.0 0.00 0.01 0.01 67 1015.4
20260902154205 70 240 2.0 11.0 0.00 0.01 0.01 67 1015.3
20260902153704 70 172 5.0 11.0 0.00 0.01 0.01 66 1015.4
20260902153204 69 159 3.0 11.0 0.00 0.01 0.01 67 1015.5
20260902152205 69 147 3.0 10.0 0.00 0.01 0.01 66 1015.5
20260902151705 70 131 3.0 10.0 0.00 0.01 0.01 66 1015.6
20260902151205 70 165 3.0 11.0 0.00 0.01 0.01 67 1015.5
20260902150705 69 71 2.0 11.0 0.00 0.01 0.01 67 1015.6
20260902150204 69 175 3.0 12.0 0.00 0.01 0.01 66 1015.8
20260902145707 69 188 3.0 12.0 0.00 0.01 0.01 66 1015.8
20260902145211 69 204 3.0 12.0 0.00 0.01 0.01 66 1015.8
20260902144704 69 141 4.0 11.0 0.00 0.01 0.01 65 1015.8
20260902144205 69 182 2.0 11.0 0.00 0.01 0.01 65 1015.8
20260902143704 69 130 3.0 11.0 0.00 0.01 0.01 65 1015.9
20260902143206 69 234 3.0 13.0 0.00 0.01 0.01 64 1015.9
20260902142705 70 217 4.0 13.0 0.00 0.01 0.01 64 1015.9
20260902142206 70 240 3.0 13.0 0.00 0.01 0.01 64 1016.0
20260902141704 70 230 3.0 13.0 0.00 0.01 0.01 64 1016.0
20260902141204 69 240 2.0 13.0 0.00 0.01 0.01 64 1016.1
20260902140704 69 279 4.0 11.0 0.00 0.01 0.01 64 1016.1
20260902140211 69 168 3.0 11.0 0.00 0.01 0.01 65 1016.1
20260902135706 69 237 2.0 11.0 0.00 0.01 0.01 65 1016.1
20260902135205 69 204 4.0 11.0 0.00 0.01 0.01 65 1016.2
20260902134704 69 176 3.0 11.0 0.00 0.01 0.01 65 1016.2
20260902133704 69 48 3.0 11.0 0.00 0.01 0.01 65 1016.3
20260902133204 69 199 4.0 14.0 0.00 0.01 0.01 65 1016.3
20260902132704 69 83 5.0 14.0 0.00 0.01 0.01 64 1016.3
20260902132203 69 217 3.0 14.0 0.00 0.01 0.01 68 1016.3
20260902131704 69 90 4.0 11.0 0.00 0.01 0.01 68 1016.4
20260902131205 69 230 4.0 10.0 0.00 0.01 0.01 68 1016.4
20260902130706 69 120 3.0 10.0 0.00 0.01 0.01 69 1016.5
20260902130204 69 188 3.0 10.0 0.00 0.01 0.01 69 1016.5
20260902125204 69 165 4.0 13.0 0.00 0.01 0.01 67 1016.5
20260902124703 69 207 2.0 9.0 0.00 0.01 0.01 69 1016.6
20260902124205 69 265 3.0 9.0 0.00 0.01 0.01 71 1016.6
20260902123706 68 206 3.0 10.0 0.00 0.01 0.01 73 1016.7
20260902123203 68 228 3.0 10.0 0.00 0.01 0.01 74 1016.7
20260902122704 68 192 2.0 10.0 0.00 0.01 0.01 75 1016.7
20260902121704 68 185 4.0 11.0 0.00 0.01 0.01 74 1016.8
20260902121205 69 118 2.0 11.0 0.00 0.01 0.01 73 1016.8
20260902120703 69 189 3.0 10.0 0.00 0.01 0.01 73 1016.8
20260902120206 69 243 2.0 10.0 0.00 0.01 0.01 73 1016.9
20260902115703 69 220 3.0 7.0 0.00 0.01 0.01 74 1016.9
20260902115204 69 189 2.0 7.0 0.01 0.01 0.01 74 1016.8
20260902114704 69 252 4.0 7.0 0.01 0.01 0.01 75 1016.8
20260902114204 68 261 3.0 5.0 0.01 0.01 0.01 76 1016.9
20260902113709 67 176 1.0 7.0 0.01 0.01 0.01 76 1016.9
20260902112706 66 227 2.0 5.0 0.01 0.01 0.01 77 1017.1
20260902112204 66 188 1.0 5.0 0.01 0.01 0.01 77 1017.2
20260902111204 65 192 0.0 7.0 0.01 0.01 0.01 77 1017.4
20260902110704 65 176 2.0 7.0 0.01 0.01 0.01 77 1017.6
20260902110228 65 199 2.0 7.0 0.01 0.01 0.01 77 1017.6
20260902105205 65 212 2.0 7.0 0.00 0.00 0.00 77 1017.7
20260902104204 66 182 2.0 6.0 0.00 0.00 0.00 76 1017.8
20260902103704 67 186 2.0 6.0 0.00 0.00 0.00 76 1017.6
20260902103204 67 183 2.0 6.0 0.00 0.00 0.00 76 1017.6
20260902102725 67 169 1.0 6.0 0.00 0.00 0.00 76 1017.6
20260902101704 67 183 1.0 4.0 0.00 0.00 0.00 76 1017.7
20260902101205 67 180 1.0 3.0 0.00 0.00 0.00 76 1017.7
20260902100705 67 188 1.0 4.0 0.00 0.00 0.00 76 1017.6
20260902100204 66 207 1.0 6.0 0.00 0.00 0.00 76 1017.6
20260902095704 66 206 1.0 6.0 0.00 0.00 0.00 76 1017.6
20260902095204 66 203 2.0 6.0 0.00 0.00 0.00 76 1017.6
20260902094704 66 183 2.0 6.0 0.00 0.00 0.00 76 1017.6
20260902094204 66 173 2.0 6.0 0.00 0.00 0.00 77 1017.7
20260902093704 66 224 2.0 4.0 0.00 0.00 0.00 77 1017.6
20260902093204 66 183 1.0 4.0 0.00 0.00 0.00 77 1017.6
20260902092704 66 186 2.0 5.0 0.00 0.00 0.00 76 1017.8
20260902092205 66 193 2.0 5.0 0.00 0.00 0.00 76 1017.8
20260902091708 66 168 1.0 5.0 0.00 0.00 0.00 76 1017.8
20260902091205 66 196 1.0 5.0 0.00 0.00 0.00 76 1017.7
20260902090704 66 197 2.0 5.0 0.00 0.00 0.00 76 1017.7
20260902090209 66 206 1.0 5.0 0.00 0.00 0.00 76 1017.7
20260902085704 66 217 1.0 5.0 0.00 0.00 0.00 76 1017.6
20260902085207 66 209 2.0 4.0 0.00 0.00 0.00 76 1017.7
20260902084707 66 188 1.0 4.0 0.00 0.00 0.00 76 1017.6
20260902084204 65 179 2.0 4.0 0.00 0.00 0.00 76 1017.6
20260902083704 65 155 1.0 4.0 0.00 0.00 0.00 76 1017.6
20260902083205 65 178 1.0 4.0 0.00 0.00 0.00 76 1017.5
20260902082705 65 196 1.0 4.0 0.00 0.00 0.00 77 1017.6
20260902082205 65 195 1.0 3.0 0.00 0.00 0.00 77 1017.5
20260902081204 65 200 1.0 5.0 0.00 0.00 0.00 77 1017.5
20260902080704 65 200 1.0 5.0 0.00 0.00 0.00 77 1017.4
20260902080205 65 200 1.0 4.0 0.00 0.00 0.00 77 1017.3
20260902075705 64 199 1.0 6.0 0.00 0.00 0.00 77 1017.3
20260902075205 64 197 1.0 6.0 0.00 0.00 0.00 77 1017.2
20260902074205 64 238 0.0 4.0 0.00 0.00 0.00 77 1017.3
20260902073705 64 252 1.0 5.0 0.00 0.00 0.00 77 1017.3
20260902073204 64 255 3.0 5.0 0.00 0.00 0.00 77 1017.3
20260902072706 64 230 1.0 5.0 0.00 0.00 0.00 77 1017.3
20260902072205 63 226 1.0 3.0 0.00 0.00 0.00 77 1017.3